Lid_Strength_Index
6 5 5 5 4 4 5 3 2 2 2 2 2 2 1 1 1 1 1 1 1 1 1 1 1 0 0 0 0 0 0 0 1
6 5 5 5 4 3 3 3 3 2 2 2 2 2 1 2 1 1 1 1 1 1 5 0 0 3 0 0 0 0 0 1 1
7 6 5 5 4 4 3 2 2 2 2 2 2 2 1 1 1 1 1 1 1 2 3 2 1 1 1 1 0 0 1 1 1
7 7 8 6 4 3 3 2 2 2 2 2 2 2 2 2 1 1 1 1 1 1 1 1 1 1 1 1 1 1 1 1 1
6 8 6 4 4 5 4 3 3 2 2 2 2 2 2 2 1 2 2 1 1 1 1 2 1 0 1 1 1 1 1 2 1
6 5 5 5 4 6 4 3 3 3 2 2 2 2 2 2 2 2 2 2 1 1 2 2 1 1 1 1 1 1 1 1 1
6 6 5 5 5 4 5 5 3 3 2 2 2 2 2 2 2 2 2 2 1 1 1 2 2 1 1 1 1 1 1 1 1
5 6 5 5 5 4 5 3 3 3 3 2 2 3 2 2 2 1 1 2 2 1 2 1 2 3 1 2 2 1 4 4 3
6 6 5 5 4 4 4 3 3 3 3 2 2 3 2 2 2 2 2 2 2 2 2 3 3 4 1 2 1 2 2 1 2
5 5 5 5 4 4 4 4 3 3 3 2 2 2 2 2 2 2 2 2 2 2 2 2 4 4 3 3 1 4 3 1 1
5 5 5 4 4 4 3 4 4 2 2 2 2 2 2 2 2 2 2 2 2 2 2 2 2 3 2 2 3 5 4 2 3
5 6 6 5 5 4 3 3 3 3 3 3 3 3 3 2 2 2 2 2 2 2 2 2 2 2 2 2 3 6 6 4 2
5 4 4 4 3 3 3 3 2 3 3 3 3 3 2 2 2 2 2 2 2 2 2 2 2 2 2 2 2 4 7 4 2
3 4 4 3 3 3 3 3 3 3 3 3 2 2 2 2 2 2 2 2 2 2 2 2 2 2 2 2 1 1 6 7 2
4 4 3 3 3 3 3 2 2 3 3 2 2 2 2 2 2 2 2 2 2 2 2 3 3 3 2 2 1 4 6 7 5
4 4 4 3 3 3 2 2 2 3 3 2 2 2 2 2 2 2 2 2 2 3 2 3 3 3 3 3 2 1 4 6 6
4 4 4 3 3 3 3 2 2 2 2 2 2 3 3 2 2 2 2 2 2 2 3 3 3 3 3 3 3 2 2 3 4
4 4 3 3 3 3 3 2 2 2 2 2 3 3 3 3 2 2 2 2 2 2 2 2 3 3 3 3 3 2 4 4 2
4 4 3 3 3 3 3 3 2 2 2 2 2 3 3 3 3 3 2 3 3 5 6 6 7 7 5 2 5 6 9 8 8
3 3 3 3 3 3 3 3 3 2 2 2 2 3 3 3 3 3 3 3 3 4 3 7 9 9 9 9 7 8 10 10 10